Regional Weather Roundup
Issued by NWS

Home | Current Version | Previous Version | Graphics & Text | Print | Product List | Glossary On
Versions: 1 2 3 4 5 6 7 8 9 10 11 12 13 14 15 16 17 18 19 20 21 22 23 24 25 26 27 28 29 30 31 32 33 34 35 36 37 38 39 40 41 42 43 44 45 46 47 48 49 50
000
ASUS43 KMPX 022001
RWRMN
WEATHER ROUNDUP FOR MINNESOTA
NATIONAL WEATHER SERVICE TWIN CITIES/CHANHASSEN MN
300 PM CDT SUN AUG 02 2015


NOTE: "FAIR" INDICATES FEW OR NO CLOUDS BELOW 12,000 FEET WITH NO
SIGNIFICANT WEATHER AND/OR OBSTRUCTIONS TO VISIBILITY. N/A MEANS
CURRENT SKY AND/OR WEATHER CONDITIONS ARE NOT AVAILABLE.

MNZ060>063-068>070-022100-
   Twin Cities Metro

CITY           SKY/WX    TMP DP  RH WIND       PRES   REMARKS
TWIN CITIES    MOSUNNY   83  65  54 NW18G26   29.70R
ST PAUL        PTSUNNY   83  64  52 NW18      29.69R
CRYSTAL        MOSUNNY   84  62  47 N14       29.70R
BLAINE         MOSUNNY   82  63  51 NW14G22   29.70R
LAKEVILLE      SUNNY     81  66  61 NW16G24   29.70R
EDEN PRAIRIE   MOSUNNY   84  67  56 NW15G21   29.70R
SOUTH ST PAUL  MOSUNNY   83  64  53 NW14G20   29.69R
LAKE ELMO      FAIR      81  63  54 NW14      29.71R
$$
MNZ001>005-007-008-013>017-022>024-027-028-022100-
   Northwest Minnesota

CITY           SKY/WX    TMP DP  RH WIND       PRES   REMARKS
BEMIDJI        MOSUNNY   73  49  41 NW17G25   29.79S
HALLOCK        MOSUNNY   75  43  31 N16G28    29.80S
ROSEAU         SUNNY     72  52  49 NW17G25   29.77S
WARROAD        MOSUNNY   72  50  46 W18G28    29.76S
THIEF RVR FALL MOSUNNY   73  45  35 NW18      29.81S
CROOKSTON      MOSUNNY   75  50  41 N17G26    29.83R
FOSSTON        MOSUNNY   73  45  35 NW14G24   29.83R
DETROIT LAKES  MOSUNNY   72  50  46 N14G26    29.84R
MOORHEAD       MOSUNNY   73  55  53 N15       29.84S
PARK RAPIDS    MOSUNNY   77  51  40 NW22G29   29.79R
MAHNOMEN       MOCLDY    72  53  51 N10G21    29.82S
$$
MNZ006-009>011-018-025>026-022100-
   North Central Minnesota

CITY           SKY/WX    TMP DP  RH WIND       PRES   REMARKS
BAUDETTE       PTSUNNY   74  48  39 NW22      29.74S
FLAG ISLAND    MOSUNNY   70  45  40 NW24G31   29.73R
INTL FALLS     MOSUNNY   72  45  37 NW18G31   29.71R
WASKISH        MOSUNNY   72  48  43 W15G22    29.76S
BIG FORK       SUNNY     73  48  40 NW5       29.74R
LONGVILLE      MOSUNNY   75  54  46 NW10G21   29.76R
GRAND RAPIDS   MOSUNNY   73  48  40 NW16G29   29.73R
CRANE LAKE     MOSUNNY   70  46  43 NW13G20   29.69S
ORR            SUNNY     73  45  35 NW15G22   29.68R
COOK           MOSUNNY   73  50  43 NW8G22    29.70S
WALKER         FAIR      73  51  45 NW18G25   29.77R
$$
MNZ012-019>021-037-022100-
   Northeast Minnesota

CITY           SKY/WX    TMP DP  RH WIND       PRES   REMARKS
DULUTH         MOSUNNY   77  56  48 NW13      29.67F
ELY            SUNNY     70  48  46 NW10G21   29.68S
HIBBING        MOSUNNY   72  56  57 W14G29    29.71R
EVELETH        MOSUNNY   72  52  49 NW12G21   29.71S
DULUTH HARBOR  MOSUNNY   79  59  50 NW17      29.65F
TWO HARBORS    PTSUNNY   79  59  50 NW3       29.63F
SILVER BAY     MOSUNNY   79  54  41 W8        29.62F
GRAND MARAIS     N/A     75  52  44 N8G20     29.59F
G MARAIS ARPRT MOSUNNY   70  46  43 NW10G18   29.65S
$$
MNZ029>031-032-039>041-046>048-054>057-064-022100-
   West Central Minnesota

CITY           SKY/WX    TMP DP  RH WIND       PRES   REMARKS
FERGUS FALLS   MOSUNNY   75  57  53 N17G29    29.81S
WHEATON        MOSUNNY   75  55  50 NW17      29.85S
MORRIS         MOSUNNY   79  57  47 NW15G24   29.82R
ALEXANDRIA     MOSUNNY   78  56  46 NW20G26   29.82R
ELBOW LAKE     FAIR      75  57  54 NW18G25   29.82S
WADENA         MOSUNNY   75  54  46 N17       29.79S
GLENWOOD       MOSUNNY  N/A N/A N/A NW17      29.81R
APPLETON       SUNNY     81  57  44 N17G24    29.82R
BENSON         MOSUNNY   81  57  44 N18G25    29.81R
ORTONVILLE     MOSUNNY   79  57  47 N15G22    29.84R
MADISON        MOSUNNY   81  57  44 N18G24    29.83R
WILLMAR        FAIR      82  61  47 NW20      29.80R
$$
MNZ033>034-036-042>043-049>051-058-059-022100-
   Central Minnesota

CITY           SKY/WX    TMP DP  RH WIND       PRES   REMARKS
ST CLOUD       MOSUNNY   82  61  48 NW15G26   29.73R
SAUK CENTRE    FAIR      77  58  52 NW18      29.78S
PAYNESVILLE    MOSUNNY   75  58  54 W14G21    29.78R
AITKIN         MOSUNNY   75  55  50 NW12G18   29.72R
PINE RIVER     MOSUNNY   75  54  46 NW15G24   29.79R
BRAINERD       MOSUNNY   80  53  39 NW18      29.75R
STAPLES        MOSUNNY   79  54  41 NW18G24   29.78R
LONG PRAIRIE   FAIR      77  59  53 W15G21    29.79R
LITTLE FALLS   MOSUNNY   79  52  38 NW17      29.75R
LITCHFIELD     SUNNY     82  63  51 NW14G23   29.76S
BUFFALO        MOSUNNY   80  60  51 NW9G20    29.73S
$$
MNZ037-044-045-052-053-022100-
   East Central Minnesota

CITY           SKY/WX    TMP DP  RH WIND       PRES   REMARKS
PRINCETON      MOSUNNY   81  63  54 NW13G22   29.72S
MORA           SUNNY     77  55  47 NW17G23   29.73S
CAMBRIDGE      MOSUNNY   81  63  54 NW12      29.70R
RUSH CITY      MOSUNNY   80  62  54 NW12G17   29.71R
MOOSE LAKE     MOSUNNY   77  55  47 NW14      29.68F
HINCKLEY       FAIR      77  59  53 NW9       29.70F
CLOQUET        SUNNY     77  52  41 NW15G23   29.68F
MCGREGOR       MOSUNNY   77  54  44 NW15G23   29.72S
$$
MNZ071>073-080-081-089-090-097-098-022100-
   Southwest Minnesota

CITY           SKY/WX    TMP DP  RH WIND       PRES   REMARKS
MONTEVIDEO     MOSUNNY   82  64  54 N14G22    29.83R
GRANITE FALLS  SUNNY     81  62  53 NW15G22   29.82S
CANBY          MOSUNNY   80  61  52 N13G23    29.85R
MARSHALL       SUNNY     81  59  47 NW17G24   29.83S
REDWOOD FALLS  SUNNY     84  61  45 N17G24    29.77R
OLIVIA         MOSUNNY   79  59  50 NW13G22   29.77S
PIPESTONE      SUNNY     82  61  47 N12G21    29.85S
WINDOM         SUNNY     82  64  54 NW17G23   29.81R
WORTHINGTON    SUNNY     82  63  51 N13G22    29.83S
JACKSON        SUNNY     84  64  51 N12G24    29.81R
SLAYTON        SUNNY     82  62  49 N14       29.84S
$$
MNZ065>067-074>077-082>085-091>093-022100-
   South Central Minnesota

CITY           SKY/WX    TMP DP  RH WIND       PRES   REMARKS
MANKATO        SUNNY     84  64  51 NW15G25   29.73R
NEW ULM        SUNNY     84  61  45 NW17G29   29.75S
ST JAMES       SUNNY     84  66  54 NW15      29.78R
FAIRMONT       SUNNY     84  64  51 NW16G24   29.77S
GLENCOE        MOSUNNY   83  67  59 NW14G22   29.73R
FARIBAULT      SUNNY     82  70  65 W13G18    29.72R
OWATONNA       SUNNY     84  66  54 NW18      29.72S
WASECA         SUNNY     82  68  61 W15G21    29.75R
ALBERT LEA     SUNNY     84  64  51 NW12G20   29.74R
$$
MNZ078>079-086>088-094>096-022100-
   Southeast Minnesota

CITY           SKY/WX    TMP DP  RH WIND       PRES   REMARKS
ROCHESTER      SUNNY     83  68  60 W21       29.71R
RED WING       MOSUNNY   84  66  54 NW12G22   29.66R
STANTON        MOSUNNY   84  68  58 NW15G22   29.68R
DODGE CENTER   SUNNY     82  64  54 NW18G24   29.72R
WINONA         SUNNY     90  64  43 W15G29    29.64R HX  91
AUSTIN         SUNNY     88  64  45 NW17G28   29.72S
PRESTON        SUNNY     85  67  54 W16G24    29.71R
$$
ABBREVIATIONS USED IN REMARKS
   TC - TEMPERATURES IN CELSIUS
  WCI - WIND CHILL INDEX
   HX - HEAT INDEX
  VSB - VISIBILITY
$$



USA.gov is the U.S. government's official web portal to all federal, state and local government web resources and services.